OSCAR 17 (DOVE)

导读 | 豆包AI

OSCAR 17(又名DOVE)是一颗由巴西(BR)发射的业余无线电卫星,于1990年1月22日成功发射入轨。作为OSCAR系列业余卫星的一员,它主要服务于全球业余无线电爱好者,提供轨道通信、信号实验等空间技术验证功能,推动了业余航天领域的国际交流与技术实践,在早期业余卫星通信发展中具有标志性意义。

基本信息
目录编号:
20440
目录名称:
OSCAR 17 (DOVE)
国际标识:
1990-005E
轨道中心:
EARTH
卫星名称:
OSCAR 17 (DOVE)
卫星全名:
--
卫星状态:
在轨 (已飞行13190 天)
发射日期:
1990-01-22 UTC
国别 :
巴西 (BR)
星等 :
--
轨道信息
数据来源 国际轨道数据
星历时间: 2026-03-04T20:27:30+0800
7小时前
查看轨道信息
半长轴: 7155.031km
偏心率: 0.001115
轨道倾角: 98.873°
近地点辐角 148.056°
升交点赤经 91.220°
平近点角 342.354°
近地点: 768.916km
远地点: 784.872km
周期: 100.387分钟
每日圈数: 14.344504
详细信息
使用方式:
暂无
2D轨道图
3D轨道图
轨道高度分析图
轨道倾角分析图
轨道综合分析图
查看轨道综合分析图